Flag for Russia Weather past 2 weeks in Surgut, Russia

Now
36 °F

Low clouds.


Feels Like: 29 °F
Forecast: 29 / 42 °F
Wind: 8 mph from Southwest

Location: Surgut Airport

Current Time: Apr 19, 2015 at 10:16:33 AM

Latest Report: Apr 19, 2015 at 9:30 AM


Visibility: 4 mi

Pressure: 29.42 "Hg

Humidity: 100%

Dew point: 36 °F

Location of SurgutLocation

Historic Weather in Surgut — Graph

°F

Surgut temperature yesterday

Maximum temperature yesterday: 41 °F (at 4:00 PM)
Minimum temperature yesterday: 34 °F (at 3:00 AM)
Average temperature yesterday: 37 °F

Past Weeks' High & Low Weather Summary

 TemperatureHumidityPressure
High52 °F (Apr 6, 11:30 AM)100% (Apr 8, 9:00 PM)30.69 "Hg (Apr 8, 9:00 PM)
Low21 °F (Apr 16, 11:30 PM)32% (Apr 7, 2:30 PM)29.39 "Hg (Apr 10, 5:30 PM)
Average36 °F74%29.90 "Hg
* Reported Apr 4 9:30 AM — Apr 19 9:00 AM, Surgut, Weather by CustomWeather, © 2015

Note: Actual official high and low records may vary slightly from our data, if they occured in-between our weather recording intervals... More about our weather records

Advertising

Surgut weather history for previous 24 hours

 ConditionsComfort  
Time TempWeatherWind HumidityBarometerVisibility
9:00 AM
Sun, Apr 19
36 °FFog.8 mph100%29.42 "Hg3 mi
8:30 AM36 °FFog.8 mph93%29.42 "Hg2 mi
8:00 AM36 °FFog.8 mph93%29.42 "Hg1 mi
7:30 AM36 °FFog.8 mph100%29.39 "Hg1 mi
7:00 AM36 °FFog.8 mph100%29.42 "Hg1 mi
6:30 AM36 °FFog.8 mph100%29.39 "Hg2 mi
6:00 AM36 °FFog.6 mph100%29.39 "Hg1 mi
5:30 AM36 °FFog.8 mph100%29.39 "Hg1 mi
5:00 AM36 °FFog.8 mph100%29.39 "Hg0 mi
4:30 AM36 °FFog.8 mph100%29.39 "Hg2 mi
4:00 AM36 °FFog.6 mph100%29.39 "Hg1 mi
3:30 AM36 °FFog.8 mph100%29.39 "Hg0 mi
3:00 AM36 °FFog.8 mph100%29.39 "Hg0 mi
2:30 AM37 °FFog.6 mph100%29.39 "Hg2 mi
2:00 AM37 °FFog.8 mph100%29.39 "Hg2 mi
1:30 AM37 °FPartly cloudy.6 mph100%29.39 "Hg4 mi
1:00 AM37 °FLow clouds.6 mph100%29.39 "Hg4 mi
12:30 AM39 °FLow clouds.8 mph93%29.39 "Hg4 mi
12:00 AM39 °FFog.6 mph93%29.39 "Hg2 mi
11:30 PM
Sat, Apr 18
39 °FLight rain. Fog.3 mph93%29.39 "Hg2 mi
11:00 PM39 °FSprinkles. Partly cloudy.3 mph93%29.39 "Hg4 mi
10:30 PM39 °FSprinkles. Partly cloudy.3 mph100%29.39 "Hg4 mi
10:00 PM39 °FSprinkles. Fog.1 mph100%29.39 "Hg2 mi
9:30 PM39 °FSprinkles. Passing clouds.3 mph100%29.39 "Hg4 mi
9:00 PM39 °FSprinkles. Fog.1 mph100%29.42 "Hg3 mi
8:30 PM41 °FSprinkles. Scattered clouds.1 mph93%29.42 "Hg4 mi
8:00 PM41 °FSprinkles. Mostly cloudy.6 mph93%29.42 "Hg4 mi
7:30 PM41 °FSprinkles. Broken clouds.6 mph100%29.42 "Hg4 mi
7:00 PM41 °FSprinkles. Fog.3 mph100%29.45 "Hg3 mi
6:30 PM41 °FSprinkles. Fog.3 mph100%29.45 "Hg2 mi
6:00 PM41 °FSprinkles. Fog.1 mph100%29.45 "Hg2 mi
5:30 PM41 °FSprinkles. Fog.3 mph100%29.45 "Hg3 mi
5:00 PM41 °FLight rain. Fog.6 mph93%29.45 "Hg3 mi
4:30 PM41 °FLight rain. Fog.6 mph93%29.47 "Hg3 mi
4:00 PM41 °FLight rain. Fog.10 mph93%29.47 "Hg2 mi
3:30 PM39 °FLight rain. Fog.8 mph100%29.47 "Hg3 mi
3:00 PM39 °FFog.6 mph100%29.47 "Hg3 mi
2:30 PM39 °FFog.8 mph100%29.50 "Hg3 mi
2:00 PM37 °FFog.10 mph100%29.50 "Hg3 mi
1:30 PM37 °FFog.10 mph100%29.50 "Hg3 mi
1:00 PM37 °FLight rain. Fog.8 mph100%29.53 "Hg2 mi
12:30 PM37 °FFog.10 mph100%29.53 "Hg2 mi
12:00 PM37 °FFog.13 mph100%29.56 "Hg1 mi
11:30 AM37 °FFog.10 mph93%29.56 "Hg1 mi
11:00 AM36 °FFog.10 mph100%29.56 "Hg1 mi
10:30 AM36 °FFog.10 mph100%29.56 "Hg1 mi
10:00 AM36 °FFog.8 mph100%29.59 "Hg1 mi
Weather by CustomWeather, © 2015

See weather overviewHow to use our weather pages